Change the Weather History Date:

Wednesday, November 27, 2013

  Actual Average (KPOE) Record (KPOE)
Temperature  
Mean Temperature 44 °F -  
Max Temperature 55 °F 63 °F 78 °F (2005)
Min Temperature 32 °F 44 °F 30 °F (2013)
Degree Days  
Heating Degree Days 22    
Moisture  
Dew Point 29 °F    
Average Humidity 65    
Maximum Humidity 82    
Minimum Humidity 33    
Precipitation  
Precipitation 0.00 in - - ()
Sea Level Pressure  
Sea Level Pressure 30.39 in    
Wind  
Wind Speed 3 mph (North)    
Max Wind Speed 10 mph    
Max Gust Speed 17 mph    
Visibility 10 miles    
Events      
Averages and records for this station are not official NWS values.
T = Trace of Precipitation, MM = Missing Value Source: NWS Daily Summary

Daily Weather History Graph

Daily Weather History Graph

Search for Another Location

Airport or City:

Trip Planner

Search our weather history database for the weather conditions in past years. The results will help you decide how hot, cold, wet, or windy it might be!

Date:

Astronomy

Nov. 27, 2013 Rise Set
Actual Time 6:49 AM CST 5:09 PM CST
Civil Twilight 6:22 AM CST 5:35 PM CST
Nautical Twilight 5:53 AM CST 6:05 PM CST
Astronomical Twilight 5:23 AM CST 6:34 PM CST
Moon 1:12 AM CST (11/27) 1:28 PM CST (11/27)
Length of Visible Light 11h 12m
Length of Day
10h 20m
Waning Crescent, 31% of the Moon is Illuminated
Nov 27
Waning Crescent
Dec 2
New
Dec 9
First Quarter
Dec 17
Full
Dec 25
Last Quarter

Hourly Weather History & Observations

Time (CST) Temp. Windchill Dew Point Humidity Pressure Visibility Wind Dir Wind Speed Gust Speed Precip Events Conditions
12:07 AM 42.8 °F 41.1 °F 35.6 °F 76% 30.15 in 5.0 mi Variable 3.5 mph - N/A   Haze
12:54 AM 42.1 °F 39.2 °F 36.0 °F 79% 30.26 in 9.0 mi Variable 4.6 mph - N/A   Clear
1:54 AM 41.0 °F 39.0 °F 34.0 °F 76% 30.27 in 10.0 mi Variable 3.5 mph - N/A   Clear
2:54 AM 39.9 °F 37.8 °F 34.0 °F 79% 30.29 in 10.0 mi Variable 3.5 mph - N/A   Clear
3:54 AM 39.0 °F 35.7 °F 33.1 °F 79% 30.31 in 10.0 mi Variable 4.6 mph - N/A   Clear
4:54 AM 37.0 °F 33.3 °F 30.9 °F 79% 30.34 in 10.0 mi North 4.6 mph - N/A   Clear
5:54 AM 36.0 °F 33.3 °F 30.9 °F 82% 30.36 in 10.0 mi North 3.5 mph - N/A   Clear
6:54 AM 36.0 °F 33.3 °F 28.0 °F 73% 30.40 in 10.0 mi Variable 3.5 mph - N/A   Clear
7:54 AM 37.0 °F 33.3 °F 30.0 °F 76% 30.42 in 10.0 mi Variable 4.6 mph - N/A   Clear
8:54 AM 45.0 °F 43.5 °F 30.9 °F 58% 30.43 in 10.0 mi Variable 3.5 mph - N/A   Clear
9:54 AM 46.0 °F 41.0 °F 27.0 °F 47% 30.44 in 10.0 mi NNE 10.4 mph 17.3 mph N/A   Clear
10:54 AM 48.9 °F - 27.0 °F 43% 30.44 in 10.0 mi Variable 4.6 mph - N/A   Clear
11:54 AM 52.0 °F - 27.0 °F 38% 30.41 in 10.0 mi Variable 4.6 mph - N/A   Clear
12:54 PM 55.0 °F - 26.1 °F 33% 30.38 in 10.0 mi Calm Calm - N/A   Clear
1:54 PM 55.0 °F - 26.1 °F 33% 30.38 in 10.0 mi Variable 4.6 mph - N/A   Clear
2:54 PM 53.1 °F - 25.0 °F 34% 30.37 in 10.0 mi Variable 5.8 mph - N/A   Clear
3:54 PM 52.0 °F - 26.1 °F 37% 30.39 in 10.0 mi Variable 5.8 mph - N/A   Clear
4:54 PM 45.0 °F - 28.0 °F 52% 30.40 in 10.0 mi Calm Calm - N/A   Clear
5:54 PM 39.0 °F - 30.0 °F 70% 30.42 in 10.0 mi Calm Calm - N/A   Clear
6:54 PM 36.0 °F - 30.0 °F 79% 30.44 in 10.0 mi Calm Calm - N/A   Clear
7:54 PM 35.1 °F - 28.0 °F 76% 30.46 in 10.0 mi Calm Calm - N/A   Clear
8:54 PM 33.1 °F - 27.0 °F 78% 30.48 in 10.0 mi Calm Calm - N/A   Clear
9:54 PM 32.0 °F - 27.0 °F 82% 30.49 in 10.0 mi Calm Calm - N/A   Clear
10:54 PM 32.0 °F - 25.0 °F 75% 30.50 in 10.0 mi Calm Calm - N/A   Clear
11:54 PM 32.0 °F - 26.1 °F 79% 30.48 in 10.0 mi Calm Calm - N/A   Clear